OPTUS B3

Last updated on Jan. 25, 2017, 12:16 a.m. UTC

1 23227U 94055A   17023.86020453 -.00000195  00000-0  00000-0 0  9996
2 23227   7.1678  51.2683 0007414 262.2187 117.2266  0.98699209 82058
UTC
Height (km)
Latitude
Longitude
Inclination
Orbital Period
UTC large
Height (km)
Speed (km/s)
/
Latitude / Longitude
Inclination (degrees)
Orbital Period (minutes)
Azimuth
Elevation
Range (km)
Doppler Factor
iOS Compass Heading
iOS Angle

Next 30 passes for location: Hong Kong

Rise time Rise Azimuth (degrees) Set time Set Azimuth (degrees) Duration Max altitude (degrees)

No matching passes for this satellites